Regional Weather Roundup
Issued by NWS Raleigh/Durham, NC

Home | Current Version | Previous Version | Text Only | Print | Product List | Glossary On
Versions: 1 2 3 4 5 6 7 8 9 10 11 12 13 14 15 16 17 18 19 20 21 22 23 24 25 26 27 28 29 30 31 32 33 34 35 36 37 38 39 40 41 42 43 44 45 46 47 48 49 50
000
ASUS42 KRAH 150810
RWRRAH
NORTH CAROLINA WEATHER ROUNDUP
NATIONAL WEATHER SERVICE RALEIGH NC
300 AM EST FRI DEC 15 2017

NOTE: "FAIR" INDICATES FEW OR NO CLOUDS BELOW 12,000 FEET WITH NO
SIGNIFICANT WEATHER AND/OR OBSTRUCTIONS TO VISIBILITY.

NCZ001-053-055-056-065-067-150900-
WESTERN NORTH CAROLINA

CITY           SKY/WX    TMP DP  RH WIND       PRES   REMARKS
ASHEVILLE      CLOUDY    33  27  78 CALM      29.96S
JEFFERSON      CLEAR     27  23  85 CALM      29.92S
MORGANTON      PTCLDY    28  27  95 CALM      30.02S
HICKORY        PTCLDY    33  25  72 N3        29.98S
RUTHERFORDTON  NOT AVBL
MOUNT AIRY     CLEAR     35  22  59 NE8       30.01S WCI  28
BOONE          CLEAR     22  22 100 CALM      29.93S
$$

NCZ021-022-025-041-071-084-088-150900-
CENTRAL NORTH CAROLINA

CITY           SKY/WX    TMP DP  RH WIND       PRES   REMARKS
CHARLOTTE      MOCLDY    40  26  57 NE7       29.98R
GREENSBORO     CLEAR     33  22  63 NE8       29.99R WCI  26
WINSTON-SALEM  CLEAR     33  21  61 NE12      30.00R WCI  24
RALEIGH-DURHAM PTCLDY    33  28  81 NE7       30.02S WCI  27
FORT BRAGG     CLOUDY    38  31  77 NE7       29.98S WCI  33
FAYETTEVILLE   PTCLDY    38  32  79 NE7       29.98S WCI  33
BURLINGTON     CLEAR     33  24  69 N5        30.00S WCI  29
LAURINBURG     CLOUDY    38  32  79 NE3       29.98S
$$

NCZ011-015-027-028-043-044-047-080-103-150900-
NORTHEASTERN NORTH CAROLINA

CITY           SKY/WX    TMP DP  RH WIND       PRES   REMARKS
ROCKY MT-WILSO CLEAR     33  28  81 NE7       30.03F WCI  27
GREENVILLE     CLEAR     32  28  86 N3        30.05S
WASHINGTON     CLOUDY    35  31  85 NE5       30.03S WCI  30
ELIZABETH CITY CLEAR     37  35  92 N8        30.05S WCI  31
MANTEO         PTCLDY    45  38  77 E9        30.03S
CAPE HATTERAS  PTCLDY    47  41  80 NE6       30.00R
$$

NCZ078-087-090-091-093-098-101-150900-
SOUTHEASTERN NORTH CAROLINA

CITY           SKY/WX    TMP DP  RH WIND       PRES   REMARKS
LUMBERTON      CLOUDY    38  35  89 CALM      29.97S
GOLDSBORO      CLOUDY    36  30  81 NE3       30.00S
KENANSVILLE    PTCLDY    37  34  87 CALM      30.00F
NEW BERN       CLOUDY    36  35  96 NE5       30.02F WCI  32
CHERRY POINT   PTCLDY    41  32  70 NE5       30.01F
BEAUFORT       PTCLDY    43  41  93 NE8       30.00S
JACKSONVILLE   PTCLDY    39  37  92 CALM      30.00F
WILMINGTON     MOCLDY    39  38  96 NE5       29.99S
$$




USA.gov is the U.S. government's official web portal to all federal, state and local government web resources and services.